TimeCDT,TemperatureF,Dew PointF,Humidity,Sea Level PressureIn,VisibilityMPH,Wind Direction,Wind SpeedMPH,Gust SpeedMPH,PrecipitationIn,Events,Conditions,WindDirDegrees,DateUTC
12:15 AM,53.6,37.4,54,30.01,5.0,Calm,Calm,-,N/A,,Haze,0,2012-10-03 05:15:00
12:35 AM,53.6,37.4,54,30.01,6.0,Calm,Calm,-,N/A,,Haze,0,2012-10-03 05:35:00
12:55 AM,53.6,37.4,54,30.02,7.0,Calm,Calm,-,N/A,,Partly Cloudy,0,2012-10-03 05:55:00
1:15 AM,53.6,37.4,54,30.02,6.0,Calm,Calm,-,N/A,,Haze,0,2012-10-03 06:15:00
1:35 AM,51.8,35.6,54,30.02,2.5,Calm,Calm,-,N/A,,Haze,0,2012-10-03 06:35:00
1:55 AM,51.8,35.6,54,30.02,3.0,Calm,Calm,-,N/A,,Haze,0,2012-10-03 06:55:00
2:15 AM,51.8,35.6,54,30.03,5.0,Calm,Calm,-,N/A,,Haze,0,2012-10-03 07:15:00
2:35 AM,51.8,35.6,54,30.02,0.8,SE,3.5,-,N/A,,Haze,130,2012-10-03 07:35:00
2:55 AM,51.8,35.6,54,30.03,4.0,Calm,Calm,-,N/A,,Haze,0,2012-10-03 07:55:00
3:15 AM,51.8,35.6,54,30.03,0.8,Calm,Calm,-,N/A,,Haze,0,2012-10-03 08:15:00
3:35 AM,51.8,35.6,54,30.02,1.5,Calm,Calm,-,N/A,,Haze,0,2012-10-03 08:35:00
3:55 AM,51.8,35.6,54,30.03,5.0,Calm,Calm,-,N/A,,Haze,0,2012-10-03 08:55:00
4:15 AM,51.8,35.6,54,30.03,0.8,Calm,Calm,-,N/A,,Haze,0,2012-10-03 09:15:00
4:35 AM,51.8,35.6,54,30.04,0.5,Calm,Calm,-,N/A,,Haze,0,2012-10-03 09:35:00
4:55 AM,51.8,35.6,54,30.05,5.0,Calm,Calm,-,N/A,,Haze,0,2012-10-03 09:55:00
5:15 AM,51.8,35.6,54,30.05,0.8,Calm,Calm,-,N/A,,Haze,0,2012-10-03 10:15:00
5:35 AM,51.8,35.6,54,30.06,3.0,Calm,Calm,-,N/A,,Haze,0,2012-10-03 10:35:00
5:55 AM,50.0,33.8,54,30.07,0.2,Calm,Calm,-,N/A,,Haze,0,2012-10-03 10:55:00
6:15 AM,50.0,33.8,54,30.08,1.5,Calm,Calm,-,N/A,,Haze,0,2012-10-03 11:15:00
6:55 AM,51.8,35.6,54,30.08,0.2,Calm,Calm,-,N/A,,Haze,0,2012-10-03 11:55:00
7:15 AM,51.8,35.6,54,30.08,1.2,Calm,Calm,-,N/A,,Haze,0,2012-10-03 12:15:00
7:35 AM,53.6,37.4,54,30.09,2.5,Calm,Calm,-,N/A,,Haze,0,2012-10-03 12:35:00
7:55 AM,55.4,39.2,54,30.10,3.0,Calm,Calm,-,N/A,,Haze,0,2012-10-03 12:55:00
8:15 AM,57.2,42.8,59,30.11,3.0,Calm,Calm,-,N/A,,Haze,0,2012-10-03 13:15:00
8:55 AM,62.6,44.6,52,30.12,6.0,SSE,3.5,-,N/A,,Haze,160,2012-10-03 13:55:00
9:15 AM,62.6,46.4,55,30.13,9.0,SSE,3.5,-,N/A,,Clear,160,2012-10-03 14:15:00
9:35 AM,66.2,48.2,52,30.13,9.0,SSW,4.6,-,N/A,,Clear,210,2012-10-03 14:35:00
9:55 AM,68.0,51.8,56,30.13,10.0,SW,3.5,-,N/A,,Clear,220,2012-10-03 14:55:00
10:15 AM,69.8,53.6,56,30.13,9.0,SSW,5.8,-,N/A,,Clear,210,2012-10-03 15:15:00
10:55 AM,73.4,55.4,53,30.13,9.0,South,5.8,-,N/A,,Clear,180,2012-10-03 15:55:00
11:15 AM,75.2,57.2,53,30.13,9.0,SSW,6.9,-,N/A,,Clear,210,2012-10-03 16:15:00
11:35 AM,75.2,59.0,57,30.13,10.0,WSW,5.8,-,N/A,,Scattered Clouds,240,2012-10-03 16:35:00
11:55 AM,75.2,59.0,57,30.12,10.0,South,6.9,-,N/A,,Scattered Clouds,190,2012-10-03 16:55:00
12:15 PM,75.2,59.0,57,30.12,10.0,SSW,6.9,-,N/A,,Scattered Clouds,210,2012-10-03 17:15:00
12:35 PM,77.0,60.8,57,30.11,9.0,South,5.8,-,N/A,,Scattered Clouds,190,2012-10-03 17:35:00
12:55 PM,78.8,62.6,57,30.11,10.0,South,5.8,-,N/A,,Partly Cloudy,180,2012-10-03 17:55:00
1:15 PM,78.8,62.6,57,30.10,10.0,SSW,8.1,-,N/A,,Clear,200,2012-10-03 18:15:00
1:55 PM,80.6,64.4,58,30.08,10.0,South,4.6,-,N/A,,Partly Cloudy,170,2012-10-03 18:55:00
2:35 PM,82.4,64.4,54,30.07,10.0,South,6.9,-,N/A,,Clear,180,2012-10-03 19:35:00
2:55 PM,80.6,62.6,54,30.08,10.0,SW,6.9,-,N/A,,Clear,230,2012-10-03 19:55:00
3:15 PM,78.8,62.6,57,30.08,10.0,SSW,6.9,-,N/A,,Clear,210,2012-10-03 20:15:00
3:35 PM,77.0,59.0,54,30.08,10.0,South,3.5,-,N/A,,Clear,180,2012-10-03 20:35:00
3:55 PM,78.8,60.8,54,30.08,9.0,SSW,4.6,-,N/A,,Clear,210,2012-10-03 20:55:00
4:15 PM,77.0,60.8,57,30.08,9.0,Calm,Calm,-,N/A,,Clear,0,2012-10-03 21:15:00
4:35 PM,78.8,60.8,54,30.08,10.0,South,5.8,-,N/A,,Clear,180,2012-10-03 21:35:00
4:55 PM,78.8,60.8,54,30.08,9.0,SSW,6.9,-,N/A,,Clear,200,2012-10-03 21:55:00
5:15 PM,77.0,60.8,57,30.08,9.0,SSE,3.5,-,N/A,,Clear,150,2012-10-03 22:15:00
5:35 PM,77.0,59.0,54,30.09,9.0,SSE,3.5,-,N/A,,Clear,150,2012-10-03 22:35:00
5:55 PM,75.2,57.2,53,30.09,10.0,Calm,Calm,-,N/A,,Clear,0,2012-10-03 22:55:00
6:15 PM,71.6,53.6,53,30.10,9.0,Calm,Calm,-,N/A,,Clear,0,2012-10-03 23:15:00
6:35 PM,66.2,51.8,60,30.10,7.0,Calm,Calm,-,N/A,,Clear,0,2012-10-03 23:35:00
6:55 PM,64.4,48.2,56,30.10,6.0,Calm,Calm,-,N/A,,Haze,0,2012-10-03 23:55:00
7:15 PM,64.4,48.2,56,30.11,7.0,Calm,Calm,-,N/A,,Clear,0,2012-10-04 00:15:00
7:35 PM,62.6,46.4,55,30.11,5.0,Calm,Calm,-,N/A,,Haze,0,2012-10-04 00:35:00
7:55 PM,62.6,46.4,55,30.12,7.0,SE,3.5,-,N/A,,Clear,130,2012-10-04 00:55:00
8:15 PM,62.6,46.4,55,30.13,10.0,Calm,Calm,-,N/A,,Clear,0,2012-10-04 01:15:00
8:35 PM,62.6,44.6,52,30.13,7.0,Calm,Calm,-,N/A,,Clear,0,2012-10-04 01:35:00
8:55 PM,62.6,46.4,55,30.14,8.0,Calm,Calm,-,N/A,,Clear,0,2012-10-04 01:55:00
9:15 PM,62.6,46.4,55,30.15,10.0,SSE,3.5,-,N/A,,Clear,150,2012-10-04 02:15:00
9:35 PM,62.6,46.4,55,30.15,9.0,Calm,Calm,-,N/A,,Clear,0,2012-10-04 02:35:00
9:55 PM,62.6,46.4,55,30.16,9.0,Calm,Calm,-,N/A,,Clear,0,2012-10-04 02:55:00
10:15 PM,62.6,46.4,55,30.16,10.0,Calm,Calm,-,N/A,,Clear,0,2012-10-04 03:15:00
10:35 PM,62.6,46.4,55,30.16,9.0,Calm,Calm,-,N/A,,Clear,0,2012-10-04 03:35:00
10:55 PM,60.8,44.6,55,30.17,8.0,Calm,Calm,-,N/A,,Clear,0,2012-10-04 03:55:00
11:15 PM,60.8,44.6,55,30.17,7.0,Calm,Calm,-,N/A,,Clear,0,2012-10-04 04:15:00
11:35 PM,59.0,42.8,55,30.17,5.0,Calm,Calm,-,N/A,,Haze,0,2012-10-04 04:35:00
11:55 PM,59.0,42.8,55,30.17,7.0,Calm,Calm,-,N/A,,Clear,0,2012-10-04 04:55:00